• In Belarus
  • List of Countries
  • For 7 days
  • Water Temperature
  • Satellite Maps
  • Weather Map
  • Weather Widgets
  • user-avatar
    Login

    Hourly Weather Slocwina

    Today, 10 December, Monday

    Time Temperature Precipitation Wind Pressure Humidity
    00:00 +4°C° 0.2 mm 8 mps 741 mmHg 75%
    01:00 +4°C° 0 mm 7 mps 741 mmHg 73%
    02:00 +4°C° 0.2 mm 7 mps 742 mmHg 73%
    03:00 +4°C° 0.2 mm 8 mps 742 mmHg 73%
    04:00 +2°C° 0.2 mm 8 mps 743 mmHg 73%
    05:00 +2°C° 0.1 mm 8 mps 744 mmHg 73%
    06:00 +2°C° 0.1 mm 8 mps 745 mmHg 73%
    07:00 +3°C° 0.1 mm 7 mps 745 mmHg 73%
    08:00 +3°C° 0.2 mm 7 mps 746 mmHg 73%
    09:00 +2°C° 0.2 mm 8 mps 746 mmHg 72%
    10:00 +2°C° 0.2 mm 8 mps 747 mmHg 71%
    11:00 +2°C° 0.2 mm 8 mps 747 mmHg 69%
    12:00 +2°C° 0.2 mm 8 mps 747 mmHg 67%
    13:00 +2°C° 0.2 mm 8 mps 747 mmHg 64%
    14:00 +3°C° 0.1 mm 7 mps 747 mmHg 66%
    15:00 +3°C° 0.1 mm 6 mps 748 mmHg 67%
    16:00 +2°C° 0.1 mm 6 mps 748 mmHg 68%
    17:00 +2°C° 0 mm 6 mps 748 mmHg 70%
    18:00 +1°C° 0 mm 6 mps 748 mmHg 72%
    19:00 +1°C° 0 mm 6 mps 748 mmHg 74%
    20:00 +1°C° 0.1 mm 6 mps 748 mmHg 75%
    21:00 +1°C° 0.1 mm 6 mps 748 mmHg 77%
    22:00 +1°C° 0.1 mm 6 mps 748 mmHg 78%
    23:00 +1°C° 0.1 mm 5 mps 748 mmHg 79%

    Tomorrow, 11 December, Tuesday

    Time Temperature Precipitation Wind Pressure Humidity
    00:00 +1°C° 0.1 mm 5 mps 748 mmHg 80%
    01:00 +1°C° 0.1 mm 5 mps 748 mmHg 80%
    02:00 +1°C° 0.2 mm 5 mps 747 mmHg 80%
    03:00 +1°C° 0.2 mm 5 mps 747 mmHg 81%
    04:00 +1°C° 0.2 mm 5 mps 747 mmHg 81%
    05:00 +1°C° 0.4 mm 5 mps 747 mmHg 81%
    06:00 +1°C° 0.4 mm 5 mps 747 mmHg 82%
    07:00 +1°C° 0.4 mm 6 mps 747 mmHg 82%
    08:00 +1°C° 0.5 mm 5 mps 747 mmHg 83%
    09:00 +1°C° 0.5 mm 5 mps 747 mmHg 83%
    10:00 +1°C° 0.5 mm 5 mps 747 mmHg 84%
    11:00 +1°C° 0.3 mm 5 mps 747 mmHg 83%
    12:00 +2°C° 0.3 mm 5 mps 747 mmHg 82%
    13:00 +2°C° 0.3 mm 5 mps 748 mmHg 81%
    14:00 +1°C° 0.3 mm 5 mps 748 mmHg 82%
    15:00 +1°C° 0.3 mm 5 mps 748 mmHg 83%
    16:00 +1°C° 0.3 mm 5 mps 749 mmHg 84%
    17:00 +1°C° 0.4 mm 4 mps 749 mmHg 86%
    18:00 +1°C° 0.4 mm 4 mps 750 mmHg 87%
    19:00 0°C° 0.4 mm 4 mps 750 mmHg 88%
    20:00 0°C° 0.2 mm 4 mps 751 mmHg 90%
    21:00 0°C° 0.2 mm 4 mps 751 mmHg 91%
    22:00 0°C° 0.2 mm 4 mps 752 mmHg 92%
    23:00 +1°C° 0.1 mm 3 mps 752 mmHg 93%

    Day after tomorrow, 12 December, Wednesday

    Time Temperature Precipitation Wind Pressure Humidity
    00:00 +1°C° 0.1 mm 3 mps 752 mmHg 93%
    01:00 +1°C° 0.1 mm 3 mps 753 mmHg 94%
    02:00 0°C° 0.1 mm 3 mps 753 mmHg 94%
    03:00 0°C° 0.1 mm 3 mps 753 mmHg 94%
    04:00 0°C° 0.1 mm 3 mps 754 mmHg 93%
    05:00 0°C° 0.1 mm 3 mps 754 mmHg 94%
    06:00 -1°C° 0.1 mm 3 mps 754 mmHg 94%
    07:00 -1°C° 0.1 mm 3 mps 755 mmHg 95%
    08:00 -1°C° 0.1 mm 2 mps 755 mmHg 94%
    09:00 -1°C° 0.1 mm 2 mps 755 mmHg 93%
    10:00 -1°C° 0.1 mm 2 mps 756 mmHg 92%
    11:00 +1°C° 0 mm 2 mps 756 mmHg 90%
    12:00 +1°C° 0 mm 2 mps 756 mmHg 89%
    13:00 +1°C° 0 mm 2 mps 756 mmHg 88%
    14:00 +2°C° 0 mm 1 mps 756 mmHg 89%
    15:00 +2°C° 0 mm 1 mps 756 mmHg 90%
    16:00 +1°C° 0 mm 1 mps 756 mmHg 91%
    17:00 +1°C° 0 mm 1 mps 756 mmHg 91%
    18:00 +1°C° 0 mm 1 mps 756 mmHg 92%
    19:00 +1°C° 0 mm 1 mps 756 mmHg 92%
    20:00 +1°C° 0 mm 1 mps 757 mmHg 92%
    21:00 0°C° 0 mm 1 mps 757 mmHg 92%
    22:00 0°C° 0 mm 1 mps 757 mmHg 92%
    23:00 0°C° 0 mm 1 mps 757 mmHg 92%

    13 December, Thursday

    Time Temperature Precipitation Wind Pressure Humidity
    00:00 0°C° 0 mm 1 mps 757 mmHg 92%
    01:00 0°C° 0 mm 1 mps 757 mmHg 92%
    02:00 -1°C° 0 mm 1 mps 757 mmHg 92%
    03:00 -1°C° 0 mm 1 mps 757 mmHg 92%
    04:00 -1°C° 0 mm 1 mps 757 mmHg 92%
    05:00 -1°C° 0 mm 1 mps 757 mmHg 92%
    06:00 -1°C° 0 mm 1 mps 757 mmHg 92%
    07:00 -1°C° 0 mm 1 mps 757 mmHg 92%
    08:00 0°C° 0 mm 1 mps 757 mmHg 91%
    09:00 0°C° 0 mm 1 mps 757 mmHg 89%
    10:00 +1°C° 0 mm 1 mps 757 mmHg 87%
    11:00 +1°C° 0 mm 1 mps 757 mmHg 85%
    12:00 +2°C° 0 mm 1 mps 757 mmHg 83%
    13:00 +1°C° 0 mm 2 mps 756 mmHg 81%
    14:00 -1°C° 0 mm 2 mps 756 mmHg 83%
    15:00 -1°C° 0 mm 2 mps 756 mmHg 86%
    16:00 -2°C° 0 mm 2 mps 756 mmHg 89%
    17:00 -2°C° 0 mm 2 mps 756 mmHg 90%
    18:00 -2°C° 0 mm 2 mps 756 mmHg 90%
    19:00 -2°C° 0 mm 2 mps 756 mmHg 91%
    20:00 0°C° 0 mm 1 mps 757 mmHg 90%
    21:00 0°C° 0 mm 1 mps 757 mmHg 90%
    22:00 0°C° 0 mm 1 mps 757 mmHg 89%
    23:00 0°C° 0 mm 1 mps 757 mmHg 90%

    14 December, Friday

    Time Temperature Precipitation Wind Pressure Humidity
    00:00 0°C° 0 mm 1 mps 757 mmHg 90%
    01:00 -1°C° 0 mm 1 mps 757 mmHg 90%
    02:00 -1°C° 0 mm 1 mps 757 mmHg 90%
    03:00 -1°C° 0 mm 1 mps 757 mmHg 91%
    04:00 -1°C° 0 mm 1 mps 757 mmHg 91%
    05:00 -1°C° 0 mm 1 mps 758 mmHg 90%
    06:00 -1°C° 0 mm 1 mps 758 mmHg 90%
    07:00 -3°C° 0 mm 2 mps 758 mmHg 90%
    08:00 -3°C° 0 mm 2 mps 759 mmHg 87%
    09:00 -2°C° 0 mm 2 mps 759 mmHg 85%
    10:00 -2°C° 0 mm 2 mps 759 mmHg 83%
    11:00 -1°C° 0 mm 2 mps 760 mmHg 81%
    12:00 -1°C° 0 mm 3 mps 760 mmHg 79%
    13:00 0°C° 0 mm 3 mps 760 mmHg 77%
    14:00 -1°C° 0 mm 3 mps 760 mmHg 81%
    15:00 -2°C° 0 mm 2 mps 760 mmHg 85%
    16:00 -2°C° 0 mm 2 mps 760 mmHg 89%
    17:00 -2°C° 0 mm 2 mps 761 mmHg 88%
    18:00 -2°C° 0 mm 2 mps 761 mmHg 88%
    19:00 -2°C° 0 mm 2 mps 762 mmHg 88%
    20:00 -2°C° 0 mm 2 mps 762 mmHg 88%
    21:00 -2°C° 0 mm 2 mps 762 mmHg 88%
    22:00 -2°C° 0 mm 2 mps 762 mmHg 88%
    23:00 -2°C° 0 mm 2 mps 763 mmHg 88%

    15 December, Saturday

    Time Temperature Precipitation Wind Pressure Humidity
    00:00 0°C° 0 mm 1 mps 763 mmHg 89%
    01:00 -1°C° 0 mm 1 mps 763 mmHg 90%
    02:00 -1°C° 0 mm 1 mps 763 mmHg 89%
    03:00 -1°C° 0 mm 1 mps 763 mmHg 89%
    04:00 -1°C° 0 mm 1 mps 763 mmHg 89%
    05:00 -1°C° 0 mm 1 mps 764 mmHg 89%
    06:00 -1°C° 0 mm 1 mps 764 mmHg 89%
    07:00 -1°C° 0 mm 1 mps 764 mmHg 89%
    08:00 -1°C° 0 mm 1 mps 765 mmHg 87%
    09:00 0°C° 0 mm 1 mps 765 mmHg 85%
    10:00 0°C° 0 mm 1 mps 765 mmHg 84%
    11:00 +1°C° 0 mm 1 mps 765 mmHg 82%
    12:00 +1°C° 0 mm 1 mps 765 mmHg 80%
    13:00 +2°C° 0 mm 1 mps 765 mmHg 78%
    14:00 +1°C° 0 mm 1 mps 765 mmHg 82%
    15:00 0°C° 0 mm 1 mps 765 mmHg 86%
    16:00 -3°C° 0 mm 2 mps 765 mmHg 90%
    17:00 -3°C° 0 mm 2 mps 765 mmHg 90%
    18:00 -3°C° 0 mm 2 mps 765 mmHg 91%
    19:00 -3°C° 0 mm 2 mps 765 mmHg 91%
    20:00 -3°C° 0 mm 2 mps 766 mmHg 91%
    21:00 -3°C° 0 mm 2 mps 766 mmHg 91%
    22:00 -4°C° 0 mm 3 mps 766 mmHg 91%
    23:00 -4°C° 0 mm 3 mps 765 mmHg 91%
    Show more